Lapse_Rate
5.6 5.5 5.5 5.2 5.9 5.7 5.8 5.6 5.5 5.4 5.6 5.4 5.4 5.2 5.2 5.3 5.3 5.0 5.0 5.5 5.5 5.5 4.8 4.4 4.2 4.2 4.3 4.7 4.8 4.8 4.7 4.5 4.6 4.8 5.2 5.5 5.7 5.7 5.9 6.1 6.1 6.2 6.4 7.0 7.0 7.1 7.4 7.1 7.1 7.2 7.2 7.2 7.1 7.0
5.4 5.6 5.7 5.5 5.5 5.9 5.7 5.8 5.6 5.5 5.5 5.2 4.9 5.1 5.3 5.2 4.9 4.7 5.4 5.2 5.1 5.2 4.5 3.8 4.0 4.3 4.2 4.4 4.6 5.0 4.5 4.8 5.1 5.0 5.2 5.0 5.3 5.4 5.5 6.1 5.8 6.2 6.2 6.4 6.6 6.7 6.9 7.0 7.0 7.0 7.0 7.0 6.9 6.7
5.5 5.4 5.4 5.5 5.6 5.5 5.4 5.4 5.4 5.3 4.9 4.9 4.7 5.3 5.3 5.0 4.9 5.1 5.3 5.9 5.7 5.3 4.9 4.7 4.8 4.6 4.9 4.8 5.3 4.7 4.8 5.1 5.0 5.1 5.2 5.1 5.1 5.3 5.6 5.9 6.0 6.2 6.3 6.2 6.2 6.6 6.7 6.7 6.8 7.0 6.7 6.8 6.8 6.7
5.2 5.3 5.4 5.4 5.2 5.1 5.0 5.0 4.6 4.3 4.7 4.7 5.2 5.3 5.0 4.9 5.1 5.1 5.2 5.3 4.8 4.6 4.6 4.7 4.9 4.9 5.0 5.0 4.9 5.0 5.2 5.0 4.9 4.9 5.1 5.1 4.9 5.1 5.5 5.9 6.0 6.2 6.3 6.3 6.5 6.6 6.7 6.7 6.5 6.7 6.7 6.9 6.7 6.6
4.8 4.0 3.7 4.2 4.4 4.4 4.2 4.3 4.4 4.5 4.9 5.1 5.0 5.0 5.0 4.9 4.7 4.8 4.7 4.5 4.4 4.7 4.5 4.9 4.9 4.8 4.7 4.8 4.8 4.9 4.9 4.8 4.7 4.8 5.0 4.9 4.9 4.9 5.2 5.2 5.6 6.0 6.2 6.3 6.4 6.5 6.4 6.7 6.7 6.6 6.6 6.5 6.7 6.6
3.5 4.1 4.1 4.1 4.1 4.4 4.5 4.6 5.0 5.3 5.1 4.9 5.0 5.0 5.0 5.1 5.0 4.6 4.6 4.7 5.1 5.0 4.9 4.4 4.8 4.7 4.6 4.7 4.8 4.9 4.9 4.6 4.3 4.2 4.3 4.5 4.5 4.8 4.8 5.3 5.8 6.1 6.1 6.2 6.4 6.5 6.4 6.3 6.4 6.3 6.3 6.3 6.4 6.5
4.1 4.2 4.3 4.3 4.3 4.5 4.9 5.1 5.1 4.9 4.9 4.9 4.9 4.9 4.7 4.6 4.7 4.6 4.9 4.8 4.7 4.8 5.0 5.0 4.8 4.6 4.6 4.6 4.7 4.7 4.8 4.6 4.5 4.1 4.2 4.3 4.6 4.7 4.5 4.8 5.3 5.5 5.8 6.0 6.1 6.1 6.2 6.2 6.1 5.9 6.0 6.1 6.1 6.2
4.1 4.2 4.1 4.3 4.7 4.8 5.0 4.8 4.8 4.9 5.0 5.0 5.0 5.0 5.0 4.9 5.0 5.4 5.5 5.2 4.9 4.7 4.8 4.9 4.0 4.4 4.6 4.6 4.5 4.5 4.5 4.5 4.2 4.4 4.2 4.2 4.4 4.5 4.7 5.0 5.2 5.4 5.6 5.8 5.9 5.9 6.0 6.1 6.2 6.1 5.9 5.9 6.0 6.1
3.9 4.0 4.2 4.4 4.6 4.9 5.0 5.0 5.0 5.0 4.9 5.0 5.1 4.8 4.5 4.7 4.9 5.1 5.2 5.3 5.2 5.0 5.0 5.0 4.9 4.4 4.7 4.2 3.8 3.7 3.8 3.9 4.1 3.9 4.1 4.3 4.5 4.4 5.3 4.9 5.0 5.1 5.2 5.4 5.5 5.7 5.9 5.9 5.9 5.9 5.8 5.8 6.0 6.3
3.9 4.1 4.7 4.5 5.0 4.9 5.0 5.1 5.0 4.9 5.0 5.3 5.2 5.2 5.2 5.3 5.0 4.9 4.8 4.9 4.8 4.8 5.2 4.9 4.4 4.9 4.9 4.0 3.8 3.8 3.9 4.0 4.3 4.4 4.2 4.2 4.7 5.0 4.8 4.8 4.9 4.9 5.0 5.1 5.1 5.3 5.5 5.7 5.8 5.8 5.9 5.9 5.9 6.0
4.3 4.3 4.5 4.9 4.8 4.9 4.9 4.9 5.0 5.1 5.2 5.3 5.4 5.1 5.0 4.8 4.8 4.9 4.8 4.8 4.8 5.0 5.0 4.7 4.2 4.7 4.2 3.9 3.9 4.0 4.2 4.2 4.2 4.6 4.3 4.7 4.9 5.3 5.2 5.6 5.5 5.5 5.6 5.1 5.1 5.2 5.4 5.7 5.9 6.0 5.9 5.8 5.7 5.8
4.7 4.6 4.6 4.6 4.6 4.7 4.8 4.7 4.8 4.8 5.1 5.2 5.0 5.1 5.0 4.8 5.2 5.2 5.0 5.2 5.1 5.1 5.2 5.0 4.4 4.4 4.0 4.1 4.0 4.0 4.0 4.1 4.2 4.4 4.3 4.4 5.0 5.0 5.5 5.5 5.5 5.5 5.5 5.4 5.2 5.2 5.4 5.7 5.7 5.7 5.8 5.7 5.6 5.7
4.4 4.4 4.5 4.6 4.7 4.8 4.7 4.8 4.8 4.6 4.4 4.6 4.7 4.8 5.0 5.0 5.2 5.2 5.1 5.1 5.2 4.8 5.3 4.3 4.1 4.0 3.9 3.9 4.0 4.3 3.9 4.0 4.2 4.1 4.2 5.2 4.8 5.2 5.3 5.4 5.3 5.3 5.4 5.4 5.4 5.3 5.3 5.4 5.6 5.6 5.7 5.6 5.5 5.6
4.2 4.3 4.5 4.6 4.5 4.5 4.3 4.1 4.1 4.3 4.5 4.6 5.0 5.2 5.5 5.4 5.3 5.1 4.7 4.8 5.1 5.4 4.8 4.1 3.9 4.1 3.8 4.1 4.5 4.2 4.1 4.1 4.0 4.3 4.7 5.2 4.8 5.1 5.2 5.3 5.3 5.3 5.3 5.3 5.3 5.3 5.4 5.3 5.5 5.7 5.6 5.6 5.6 5.5
4.0 4.2 4.3 4.3 4.3 4.2 4.1 4.1 4.2 4.4 4.5 4.7 5.0 5.2 5.1 5.0 5.0 4.8 4.9 5.2 5.2 5.3 4.4 3.9 3.9 4.1 4.1 4.4 4.6 4.2 4.0 3.8 4.1 4.8 5.1 4.9 4.9 5.2 5.3 5.3 5.3 5.3 5.4 5.4 5.4 5.3 5.3 5.4 5.4 5.5 5.6 5.7 5.6 5.5
3.9 3.9 4.0 4.0 4.1 4.2 4.0 4.1 4.4 4.6 4.5 4.8 4.9 4.8 5.1 5.2 5.4 5.6 5.5 5.4 4.7 4.9 4.3 4.0 4.0 4.0 4.4 4.6 4.1 4.1 4.2 4.5 5.1 5.0 5.2 5.3 5.3 5.2 5.2 5.3 5.4 5.4 5.4 5.5 5.6 5.6 5.6 5.9 5.5 5.3 5.6 5.9 5.8 5.7
3.8 4.1 4.2 4.2 4.2 4.1 4.1 4.3 4.3 4.1 4.2 4.4 4.9 5.1 5.2 5.2 5.5 5.5 5.6 5.4 4.5 4.5 4.4 4.3 4.4 4.8 4.2 4.1 4.2 4.4 4.8 5.2 4.9 5.4 5.6 5.4 5.3 5.3 5.5 5.4 5.4 5.5 5.5 5.5 5.6 5.5 5.4 5.2 5.3 6.0 5.7 5.7 6.1 5.9
4.1 4.3 4.0 4.2 4.3 4.2 4.1 4.0 3.9 3.9 4.2 4.8 4.9 5.2 5.4 5.5 5.6 5.5 5.6 5.5 5.0 4.4 4.4 4.4 4.4 4.5 4.5 4.5 4.8 5.4 5.4 5.4 5.5 5.5 5.6 5.4 5.3 5.4 5.4 5.4 5.5 5.7 5.7 5.8 5.8 5.8 5.9 5.9 5.9 5.6 5.7 5.9 5.9 5.8
4.5 4.3 4.3 4.4 4.3 4.1 3.9 3.8 3.8 4.1 4.5 4.7 4.9 5.2 5.3 5.4 5.3 5.5 5.4 5.3 5.2 4.3 4.3 4.3 4.6 4.6 4.8 5.1 4.9 5.1 5.3 5.4 5.3 5.5 5.6 5.4 5.4 5.5 5.5 5.6 5.6 5.7 5.7 5.7 5.8 5.8 5.8 5.8 5.8 6.0 6.0 5.9 5.8 5.9
4.2 3.9 3.9 3.8 3.5 3.4 3.4 3.6 4.0 4.2 4.5 4.6 4.7 4.9 5.0 5.1 5.0 5.1 5.2 5.3 5.2 4.4 4.4 4.4 4.8 5.2 5.1 4.9 4.9 4.8 5.0 5.3 5.4 5.5 5.4 5.2 5.4 5.7 5.7 5.7 5.8 5.9 5.8 5.8 5.9 5.9 6.1 6.3 6.2 6.1 6.3 6.0 6.0 5.9
4.2 4.0 3.6 3.2 3.4 3.4 3.1 3.7 3.9 4.0 4.4 4.3 4.6 4.7 4.8 4.8 4.9 5.2 5.2 5.1 5.1 5.4 5.5 5.6 5.7 5.8 5.7 5.6 5.3 5.0 5.1 5.3 5.5 5.5 5.4 5.3 5.4 5.5 5.6 5.6 5.7 5.8 5.7 5.8 6.0 6.0 6.0 6.2 6.2 6.2 6.2 6.2 6.0 5.9
4.4 4.2 4.1 4.0 3.8 3.6 3.6 4.0 3.9 4.2 4.3 4.4 4.5 4.3 4.4 4.7 4.8 4.8 4.7 4.5 5.2 5.7 5.9 5.8 5.7 5.7 5.7 5.5 5.2 5.1 5.3 5.5 5.7 5.7 5.6 5.5 5.5 5.5 5.6 5.7 5.8 5.8 5.8 5.9 6.0 6.1 6.2 6.2 6.4 6.5 6.5 6.3 6.1 5.9
5.0 4.8 4.4 4.2 3.9 3.7 3.7 3.7 3.4 3.8 3.9 4.1 4.3 3.8 4.0 4.5 4.6 4.5 3.9 4.9 5.5 5.9 5.7 5.5 5.4 5.2 5.2 5.3 5.1 5.3 5.7 5.9 5.8 5.9 5.9 5.9 5.8 5.7 5.8 5.8 5.8 5.8 5.9 5.9 6.1 6.1 6.3 6.3 6.5 6.5 6.4 6.3 6.0 5.9
4.8 4.9 4.8 4.5 4.2 3.9 3.7 3.7 3.8 3.8 3.8 3.9 3.9 3.9 4.0 4.2 4.1 3.6 3.7 5.4 5.8 5.5 5.5 5.6 5.2 5.3 5.4 5.5 5.7 5.9 5.7 5.5 5.7 5.8 5.8 5.9 5.8 5.8 5.9 5.9 5.8 5.9 6.0 6.1 6.1 6.3 6.4 6.5 6.6 6.5 6.4 6.1 5.9 5.8
5.2 5.3 5.0 4.5 4.0 3.9 3.7 3.9 3.8 3.8 4.0 4.5 4.1 3.7 3.9 3.9 3.8 3.7 3.9 6.2 5.9 5.6 5.5 5.3 5.3 5.5 5.7 5.7 5.7 5.8 5.7 5.7 5.9 5.9 6.0 5.8 5.8 5.9 5.9 5.9 6.0 6.1 6.1 6.2 6.1 6.3 6.4 6.5 6.5 6.4 6.3 6.1 5.9 5.8
5.4 5.1 4.7 4.3 4.2 4.1 3.8 4.1 4.0 4.2 4.6 4.4 4.1 4.0 4.3 3.8 3.6 3.6 4.7 6.2 5.7 5.5 5.5 5.4 5.5 5.6 5.8 5.7 5.5 5.7 5.9 5.9 5.9 6.0 6.0 5.9 5.8 5.9 5.9 6.0 6.1 6.1 6.2 6.4 6.4 6.4 6.5 6.4 6.3 6.2 6.0 5.9 5.8 5.6
5.3 4.8 4.5 4.5 4.4 4.5 4.3 4.2 4.2 4.5 4.8 4.7 4.6 4.5 4.2 3.8 3.6 4.0 6.0 5.8 5.6 5.6 5.8 5.7 5.6 5.7 5.7 5.8 5.7 5.8 6.1 5.8 6.0 5.9 6.0 5.9 5.9 6.0 6.0 6.1 6.2 6.2 6.3 6.5 6.4 6.4 6.4 6.3 6.2 6.1 6.0 5.8 5.5 5.5
5.1 4.9 4.7 4.7 4.6 4.5 4.5 4.6 4.7 4.7 4.8 4.7 4.9 4.5 4.3 4.4 4.5 5.4 5.8 5.4 5.3 5.4 5.5 5.7 5.7 5.8 5.9 6.0 6.0 6.0 6.1 6.1 6.0 6.0 6.0 6.0 5.9 5.9 6.0 6.1 6.2 6.3 6.4 6.5 6.5 6.4 6.3 6.3 6.3 6.2 6.0 5.7 5.6 5.7
5.5 5.2 5.0 4.8 4.8 4.6 4.6 4.7 4.7 5.0 5.9 6.2 5.8 5.4 5.0 5.1 4.8 5.2 5.1 5.0 5.3 5.4 5.5 5.7 5.7 5.8 5.9 6.0 6.0 6.1 6.0 6.0 6.0 6.1 6.0 6.0 6.0 6.0 6.0 6.2 6.3 6.4 6.4 6.4 6.4 6.4 6.4 6.4 6.3 6.1 5.9 5.7 5.9 5.9
5.6 5.5 5.2 5.1 5.1 4.9 4.7 5.1 5.9 6.7 6.4 6.0 5.7 5.3 4.8 4.8 5.5 5.2 4.8 4.9 5.2 5.3 5.4 5.5 5.7 5.8 5.9 5.9 5.9 6.0 6.0 6.1 6.2 6.2 6.1 6.1 6.1 6.2 6.3 6.3 6.4 6.5 6.5 6.5 6.5 6.5 6.5 6.4 6.3 6.0 5.8 6.0 6.1 5.8
5.9 5.7 5.6 5.5 5.3 5.3 5.4 6.1 6.4 6.3 6.2 6.1 5.9 5.5 5.4 5.4 5.2 5.2 5.0 5.0 5.2 5.2 5.4 5.6 5.9 6.0 6.0 6.0 6.0 6.0 6.2 6.3 6.3 6.2 6.2 6.3 6.3 6.3 6.3 6.3 6.4 6.4 6.4 6.5 6.5 6.6 6.6 6.5 6.2 6.1 6.3 6.2 6.0 5.6
6.0 5.9 5.9 5.5 5.5 5.9 6.1 6.3 6.6 6.4 6.5 6.4 6.1 5.7 5.5 5.5 5.2 5.3 5.4 5.3 5.4 5.4 5.6 5.8 5.9 6.2 6.1 6.0 6.0 6.3 6.5 6.4 6.4 6.3 6.3 6.3 6.3 6.2 6.2 6.3 6.3 6.4 6.5 6.5 6.6 6.6 6.6 6.3 6.3 6.5 6.4 6.1 5.8 5.5
6.2 6.1 6.2 6.2 5.9 5.9 6.3 6.8 6.9 6.7 6.5 6.3 6.0 5.8 5.8 5.6 5.2 5.5 5.5 5.2 5.5 5.9 6.0 6.1 6.2 6.2 6.3 6.3 6.4 6.5 6.5 6.5 6.5 6.4 6.3 6.2 6.2 6.2 6.3 6.3 6.4 6.4 6.5 6.6 6.6 6.6 6.4 6.4 6.7 6.6 6.3 5.9 5.6 5.6
Wind_Speed
40 38 37 36 39 38 37 39 40 39 43 38 36 29 18 10 7 3 2 4 4 7 11 16 14 15 11 8 7 8 5 2 5 1 2 1 2 2 2 1 2 2 2 1 2 2 3 6 6 6 4 8 10 9
38 37 36 34 33 34 35 37 38 38 37 33 31 24 17 10 7 5 5 3 5 6 11 13 14 13 6 5 6 9 3 7 3 1 2 2 2 2 3 3 6 4 4 1 2 2 4 10 2 5 5 5 7 5
36 35 33 32 32 33 34 34 34 33 32 29 27 21 17 14 8 4 8 8 8 8 8 5 7 5 9 9 6 5 4 4 5 3 1 1 3 3 3 6 4 6 6 2 2 5 8 6 3 3 7 9 6 7
33 32 31 33 34 35 34 34 34 33 31 30 27 22 18 12 10 15 8 6 6 6 6 4 5 6 4 3 4 4 10 5 6 4 2 3 4 5 5 5 4 5 4 7 7 8 3 8 2 3 7 9 5 5
32 33 35 36 36 36 36 35 35 34 32 29 26 22 19 16 13 13 6 4 2 4 3 7 9 6 5 5 8 9 9 7 4 3 3 4 3 2 6 7 7 10 11 7 6 4 4 4 6 7 6 7 6 5
33 33 34 35 35 35 34 33 32 31 29 26 22 18 15 14 20 6 3 3 3 8 5 5 6 9 6 6 6 6 4 3 2 3 3 3 2 1 4 6 10 3 3 7 6 6 4 2 7 5 2 5 5 8
32 33 33 34 34 33 32 32 30 30 28 25 23 21 17 10 4 2 3 3 2 3 3 5 5 8 9 7 4 3 3 3 3 4 3 6 4 5 5 10 13 11 11 8 5 5 5 7 2 3 4 5 4 7
31 32 32 32 32 31 30 29 29 28 27 24 23 25 28 27 17 6 4 6 7 1 3 4 4 6 10 5 5 4 3 4 3 4 4 3 3 4 4 7 4 4 4 5 5 3 5 5 3 6 1 4 8 10
29 30 29 29 29 29 28 27 27 27 25 23 23 21 5 3 3 4 3 9 5 1 2 3 7 5 8 6 3 4 3 2 3 4 7 5 6 6 7 8 6 6 3 3 3 4 4 2 3 4 4 7 8 9
27 27 27 26 26 26 26 25 23 22 21 17 4 5 3 3 15 7 2 2 2 1 1 3 6 5 9 7 4 4 3 3 3 6 3 3 7 15 14 12 9 5 7 6 6 5 6 3 6 4 5 6 7 7
25 25 24 25 24 24 23 22 21 20 7 1 3 3 7 7 3 2 2 3 3 3 4 3 5 8 7 7 6 5 3 2 2 3 3 3 3 6 5 3 2 4 6 6 5 1 4 2 3 3 3 3 3 5
24 23 22 21 21 21 20 19 17 2 4 6 8 7 5 3 2 3 3 4 4 5 6 8 10 10 5 3 2 3 2 2 4 2 2 3 3 7 7 4 4 2 2 3 1 2 4 3 2 1 0 0 2 3
21 20 20 19 18 17 15 11 8 9 21 7 2 4 4 2 3 6 7 3 4 5 7 8 10 6 3 3 2 3 2 3 2 2 3 4 4 6 5 6 5 4 2 2 3 2 2 3 4 4 2 4 4 2
20 19 17 17 15 13 9 3 4 1 3 3 4 4 4 3 4 3 3 6 6 7 9 8 6 3 3 3 3 2 4 3 3 4 4 3 6 6 6 4 5 5 3 4 4 5 5 4 4 5 4 4 4 3
20 18 16 14 12 10 7 5 2 4 1 1 2 3 3 4 2 4 5 6 7 9 9 8 5 4 4 2 3 4 4 4 5 4 3 2 6 6 5 5 6 4 4 5 5 4 2 6 6 5 5 5 6 5
21 16 9 15 12 10 8 6 4 1 0 1 2 2 2 5 3 2 4 5 7 8 8 6 4 4 4 4 6 5 4 5 3 3 5 3 3 3 3 4 3 3 5 5 7 7 7 7 7 7 8 8 5 6
18 4 19 16 11 6 3 3 2 2 1 2 2 0 4 5 6 5 5 6 7 8 6 3 4 5 4 4 4 5 3 1 3 4 3 3 2 3 3 2 3 2 4 5 6 5 7 5 8 6 7 7 7 6
7 17 25 20 14 5 2 2 2 3 3 2 2 3 3 2 5 6 5 6 7 8 7 3 3 8 4 5 4 3 2 2 2 3 3 2 3 4 4 6 5 7 7 7 6 6 6 6 6 5 6 7 5 6
12 20 26 23 11 3 3 3 2 2 2 1 2 2 4 3 3 1 5 5 7 6 6 2 4 5 7 4 2 3 5 4 4 4 3 5 4 2 4 6 6 6 7 6 8 5 4 5 4 4 3 3 3 5
14 27 26 23 13 2 3 2 1 2 3 3 3 5 4 3 5 4 4 5 6 5 5 4 5 5 3 2 1 2 3 4 3 3 4 4 4 6 7 7 5 6 5 5 4 3 3 4 4 3 3 4 4 3
12 11 16 9 1 3 2 3 3 2 2 2 4 5 3 4 4 5 5 5 5 7 5 5 4 4 6 4 2 2 3 4 4 4 4 4 3 3 3 3 4 3 3 3 3 4 4 3 2 2 4 3 2 2
3 14 3 1 1 3 3 4 2 4 2 2 4 4 3 4 4 5 4 6 4 6 6 7 6 7 7 9 7 8 6 7 6 3 2 2 4 4 5 4 3 1 3 3 3 4 3 2 2 3 3 3 3 3
9 3 3 3 3 6 4 5 5 5 4 3 3 4 4 4 4 6 4 6 5 4 6 8 11 12 11 10 9 9 10 10 7 6 5 5 4 3 2 1 1 2 3 3 2 1 1 2 2 2 3 4 3 3
6 5 5 7 6 6 4 4 4 5 4 6 4 3 3 3 4 4 6 8 5 5 8 12 9 9 9 11 8 7 6 5 5 5 4 4 4 3 3 3 1 1 2 2 0 1 0 2 3 3 4 4 4 5
7 6 5 6 5 5 6 7 7 5 4 5 6 4 2 3 3 4 6 4 6 8 9 9 9 9 9 8 6 7 4 5 7 7 5 4 3 2 2 2 3 3 2 3 2 2 2 2 3 4 5 5 5 5
8 8 9 12 7 7 8 7 9 6 5 6 5 3 3 4 4 5 4 7 7 7 4 5 6 7 7 7 6 6 6 4 5 5 5 5 4 4 4 3 3 3 1 3 4 5 5 5 5 6 5 6 7 7
9 6 5 5 8 7 5 7 8 7 7 6 4 5 3 4 5 3 3 1 4 3 2 5 5 7 6 5 4 3 6 5 3 3 4 4 2 1 1 2 4 3 0 4 4 4 5 5 6 6 8 7 7 7
6 7 9 9 8 7 7 9 8 10 6 4 4 8 5 6 4 2 1 2 1 1 2 1 2 3 4 3 6 6 6 5 5 5 4 2 1 1 1 1 2 2 2 0 4 5 6 6 7 7 7 8 6 6
7 10 9 10 7 6 6 8 8 5 6 7 6 8 5 4 1 1 1 0 1 2 3 3 1 3 4 5 4 4 5 6 7 6 6 4 3 3 2 2 1 2 3 3 4 6 8 7 6 8 8 6 5 5
9 10 8 11 9 8 5 6 7 7 5 7 6 6 6 3 2 1 2 3 4 4 4 4 3 5 5 6 5 4 3 3 4 4 5 5 3 3 3 3 3 3 3 5 5 4 5 5 7 6 7 5 5 6
10 8 8 7 10 7 5 3 2 2 2 4 4 6 8 3 1 3 4 3 3 3 4 5 6 6 6 7 6 7 6 6 7 6 4 3 3 4 4 4 3 3 4 5 6 7 7 5 7 8 9 10 10 9
9 13 10 6 7 4 4 6 5 5 5 6 6 3 3 2 5 3 5 5 5 5 9 8 7 7 9 5 3 2 2 6 7 7 7 4 4 3 3 2 1 2 6 6 5 6 7 8 7 8 8 11 11 10
7 10 12 7 6 10 6 6 7 5 6 7 7 6 7 7 8 4 1 5 6 7 7 7 5 2 4 9 7 5 6 5 7 7 7 5 4 3 2 3 3 4 6 5 5 5 7 10 9 10 10 9 8 8
Wind_Direction
113 115 118 123 125 125 132 135 132 138 145 148 160 164 179 162 118 144 95 354 108 114 130 148 149 170 163 168 150 156 138 211 186 245 291 110 293 110 258 262 266 262 299 238 254 243 224 347 4 19 328 322 346 2
110 112 114 116 117 121 127 128 132 140 149 152 157 155 160 147 165 159 113 115 84 86 103 68 52 28 40 219 144 165 89 137 135 146 254 265 228 139 288 271 197 241 220 315 254 339 261 264 292 303 286 296 299 344
103 107 112 113 115 119 123 129 133 141 146 145 147 145 145 166 184 154 101 91 87 101 94 119 120 58 43 36 53 154 159 109 169 181 182 324 274 319 237 245 195 248 180 216 278 243 246 276 260 356 337 334 2 357
101 103 107 110 114 117 123 129 133 133 135 137 133 135 147 161 164 129 128 137 133 163 118 113 130 100 85 59 50 24 111 130 137 180 199 220 244 192 265 312 297 278 217 233 266 293 163 247 162 342 354 320 295 303
104 107 109 112 113 113 114 115 117 118 121 123 124 133 141 133 125 96 79 46 10 125 116 140 121 129 135 122 111 108 121 150 172 178 221 240 239 305 259 260 263 242 237 226 238 279 255 320 17 351 330 309 338 339
101 102 103 105 105 105 106 106 107 109 113 117 114 107 101 97 126 119 60 29 8 113 119 141 84 150 148 148 141 142 145 251 221 248 250 231 164 242 277 266 249 311 308 291 288 294 335 299 280 276 9 320 350 4
101 102 102 102 103 105 105 106 108 110 112 108 101 98 93 82 65 51 112 96 3 302 90 115 123 162 159 162 169 180 154 265 254 277 232 266 262 185 260 264 278 282 279 274 236 266 271 272 48 344 10 346 314 292
103 103 105 106 107 109 112 114 114 114 115 111 105 103 105 112 132 76 38 4 335 230 132 127 104 152 177 171 173 213 187 227 222 244 261 239 257 210 257 265 279 291 313 314 307 247 256 276 3 287 215 319 346 354
107 109 110 112 114 116 117 116 117 119 125 119 108 121 110 116 75 99 232 289 13 76 133 136 154 163 175 173 163 168 218 226 243 253 247 255 230 221 236 247 285 315 327 302 244 250 263 259 256 287 7 8 359 345
111 113 114 117 118 118 119 120 123 124 119 120 134 77 59 86 111 116 82 43 355 133 157 204 156 133 178 176 159 158 188 246 205 215 225 254 257 251 248 249 258 299 268 234 270 258 248 279 304 38 17 24 357 352
114 116 118 118 120 122 124 128 123 111 110 165 65 71 112 129 222 108 143 169 153 176 186 219 152 136 206 159 172 165 199 237 248 171 226 244 231 199 191 111 262 265 269 215 247 282 58 39 27 35 32 25 356 356
116 115 115 120 123 125 128 137 147 177 57 92 110 135 162 197 118 138 166 168 202 186 170 169 146 152 150 167 155 152 220 188 244 82 251 263 226 152 159 188 210 208 212 233 169 222 148 163 123 138 202 349 32 35
122 119 116 116 121 127 131 128 194 149 126 147 109 132 150 159 143 189 170 190 181 143 164 158 145 126 107 209 101 183 244 211 299 208 229 229 164 153 175 159 177 164 165 202 191 173 172 184 167 202 219 120 156 125
126 121 115 112 119 124 131 156 175 159 287 143 134 132 195 164 211 194 183 158 121 148 161 144 121 138 104 157 174 173 211 225 227 220 239 201 194 164 168 167 193 191 159 243 228 228 213 206 174 149 140 129 148 184
130 125 119 115 118 127 139 154 242 267 310 143 127 152 173 98 103 93 71 107 139 155 140 144 146 130 150 129 218 188 191 233 222 232 155 170 132 159 186 184 207 210 152 197 245 264 192 178 172 190 173 187 212 168
132 130 135 131 130 136 151 181 231 311 301 187 139 121 126 134 96 80 151 142 151 143 141 173 161 155 185 181 192 198 207 222 218 239 126 127 154 184 187 190 190 218 240 220 226 233 228 190 205 212 189 203 192 173
167 130 144 142 148 140 220 229 177 229 269 180 152 221 166 174 170 185 192 164 163 153 170 171 163 183 194 200 203 192 218 274 105 100 108 161 184 214 222 138 113 232 258 262 273 281 287 285 186 201 233 208 182 200
170 147 148 149 153 154 101 270 215 197 189 178 175 186 220 139 147 168 209 173 189 179 206 197 186 204 181 210 202 204 171 124 82 126 160 231 262 265 256 257 241 229 233 234 236 245 248 248 246 238 209 236 210 237
157 159 154 164 180 172 160 183 262 210 195 162 188 156 181 187 250 167 194 201 199 213 203 185 229 227 210 226 219 144 162 185 187 199 210 234 254 298 300 275 278 284 284 274 272 272 281 293 256 230 190 155 220 249
164 154 163 178 205 189 163 126 213 200 188 207 212 198 195 196 194 192 220 204 204 225 222 220 210 217 224 275 76 144 167 165 190 208 226 226 220 209 230 232 241 268 290 301 305 303 277 272 285 189 153 176 185 223
111 160 160 147 256 263 245 156 186 192 157 202 205 202 196 206 197 186 203 219 215 214 214 233 226 247 284 304 312 223 257 194 207 238 255 259 258 256 270 276 291 283 277 287 308 310 305 298 318 104 121 121 145 228
102 109 108 277 173 207 242 183 177 148 190 216 183 204 204 198 210 210 200 210 233 227 223 237 236 229 242 250 252 245 243 256 263 264 232 210 254 253 250 245 251 336 345 328 318 306 325 4 57 98 122 186 166 168
139 99 118 146 167 194 207 194 162 177 177 194 200 197 209 211 205 172 213 218 232 194 219 228 233 240 246 253 261 249 235 228 231 225 222 228 237 239 207 225 231 244 260 268 285 322 143 77 86 104 133 161 159 148
146 149 159 175 182 173 164 166 184 180 196 196 197 221 231 217 207 233 238 242 231 206 218 228 231 242 242 241 238 234 232 232 231 246 227 198 216 197 180 193 181 223 263 297 346 16 284 165 165 174 171 175 179 184
151 177 202 177 179 142 154 164 173 177 176 200 216 229 225 210 228 234 230 244 227 233 235 221 222 229 235 237 218 213 203 206 215 221 188 180 199 164 141 193 213 210 189 145 209 240 236 188 187 199 191 187 201 211
207 175 199 174 149 161 162 165 180 174 175 187 209 221 225 240 249 249 243 232 236 237 208 211 224 232 222 226 232 197 197 181 200 211 167 171 190 160 192 217 244 251 272 168 172 209 229 213 208 208 205 200 211 232
211 172 183 196 159 167 154 181 168 179 185 184 187 184 192 231 237 231 253 195 226 230 205 181 217 226 228 215 205 165 145 163 202 166 116 131 117 126 160 198 246 271 71 153 160 200 223 218 213 212 231 228 226 228
191 167 171 169 170 186 174 171 172 186 190 177 188 193 207 213 222 237 75 62 90 68 90 87 241 229 218 157 116 115 98 94 94 83 77 90 139 125 102 354 14 19 12 2 223 234 242 239 241 226 219 219 212 202
188 165 159 175 164 178 178 186 189 192 190 191 203 205 215 231 269 261 110 204 178 187 187 171 41 38 58 96 102 134 137 156 162 163 186 205 209 238 191 152 217 256 270 273 238 233 248 245 242 240 232 223 215 198
176 167 173 173 184 192 185 185 197 204 214 218 221 237 246 222 185 181 205 212 208 201 198 180 176 163 165 155 161 163 171 193 194 170 179 204 211 142 109 197 231 255 262 266 264 255 203 236 245 237 227 216 209 201
150 165 173 182 195 188 160 156 82 158 186 218 234 227 241 270 224 205 211 212 173 174 166 187 196 200 186 186 185 186 211 208 206 198 184 161 148 196 216 233 251 270 274 269 268 264 256 220 237 241 237 226 217 213
159 182 163 165 175 130 136 186 179 198 197 206 219 206 198 226 246 218 186 154 181 200 214 204 204 219 211 209 181 176 201 158 172 185 169 166 170 174 186 223 250 265 268 268 272 271 271 259 243 230 238 238 229 218
162 172 178 162 140 166 165 171 198 213 203 220 223 203 217 224 236 212 169 183 192 207 208 205 209 166 188 205 197 162 174 158 144 142 145 145 147 164 206 229 243 254 263 254 262 267 275 271 267 253 243 244 236 218